This demonstration page uses our WeatherBlox Daily Observations layout. Learn more.

Left ArrowRight Arrow

44.89941, -97.11507

Hourly Observations for June 29, 2021

Temp ( °F °C ) Dew Point ( °F °C ) Humidity (%) Winds ( mph kmh ) Pressure ( in mb ) Visibility ( mi km ) Precip ( " mm )
12:53 am 00:53 Clear 59 15 58 14.4 96 96 NW 3 6 30.11 1020 10 16 0.00 0.00
12:59 am 00:59 Mostly Clear with Mist and Fog 58 14.4 57 13.9 97 97 Calm 30.11 1020 2 3 0.00 0.00
1:09 am 01:09 Clear with Mist and Fog 56 13.3 55 12.8 97 97 N 3 6 30.11 1020 4 6 0.00 0.00
1:45 am 01:45 Clear with Mist and Fog 56 13.3 56 13.3 100 100 N 3 6 30.11 1020 3 4 0.00 0.00
1:53 am 01:53 Clear with Mist and Fog 56 13.3 56 13.3 100 100 N 3 6 30.10 1019 5 8 0.00 0.00
2:26 am 02:26 Clear with Mist and Fog 56 13.3 56 13.3 100 100 NNE 3 6 30.11 1020 2 3 0.00 0.00
2:32 am 02:32 Clear with Mist and Fog 55 12.8 55 12.8 100 100 N 3 6 30.11 1020 1 1 0.00 0.00
2:40 am 02:40 Clear with Mist and Fog 56 13.3 56 13.3 100 100 N 5 7 30.11 1020 2 3 0.00 0.00
2:42 am 02:42 Clear with Mist and Fog 56 13.3 56 13.3 100 100 N 3 6 30.11 1020 3 5 0.00 0.00
2:53 am 02:53 Clear 55 12.8 55 12.8 100 100 Calm 30.11 1020 7 11 0.00 0.00
3:29 am 03:29 Clear with Mist and Fog 55 12.8 55 12.8 100 100 NNE 3 6 30.12 1020 2 2 0.00 0.00
3:32 am 03:32 Clear with Mist and Fog 54 12.2 54 12.2 100 100 NNE 3 6 30.12 1020 1 1 0.00 0.00
3:49 am 03:49 Clear with Mist and Fog 54 12 54 12 100 100 N 6 9 30.13 1020 2 2 0.00 0.00
3:53 am 03:53 Clear with Mist and Fog 54 12.2 54 12.2 100 100 N 6 9 30.11 1020 3 5 0.00 0.00
4:26 am 04:26 Clear with Mist and Fog 55 12.8 55 12.8 100 100 N 3 6 30.12 1020 2 3 0.00 0.00
4:34 am 04:34 Clear with Mist and Fog 55 12.8 55 12.8 100 100 N 5 7 30.12 1020 1 2 0.00 0.00
4:39 am 04:39 Clear with Mist and Fog 54 12.2 54 12.2 100 100 N 6 9 30.12 1020 2 3 0.00 0.00
4:43 am 04:43 Clear with Mist and Fog 54 12.2 54 12.2 100 100 N 5 7 30.12 1020 1 2 0.00 0.00
4:51 am 04:51 Clear with Mist and Fog 55 13 55 13 100 100 N 3 6 30.12 1020 2 3 0.00 0.00
4:53 am 04:53 Clear with Mist and Fog 56 13.3 56 13.3 100 100 N 3 6 30.11 1020 4 6 0.00 0.00
5:16 am 05:16 Clear with Mist and Fog 55 12.8 55 12.8 100 100 N 3 6 30.12 1020 2 3 0.00 0.00
5:26 am 05:26 Clear with Mist and Fog 54 12.2 54 12.2 100 100 NNE 3 6 30.12 1020 1 2 0.00 0.00
5:32 am 05:32 Clear with Fog 54 12.2 54 12.2 100 100 NNE 3 6 30.12 1020 0 0 0.00 0.00
5:53 am 05:53 Sunny with Mist and Fog 55 12.8 55 12.8 100 100 Calm 30.12 1020 1 1 0.00 0.00
5:57 am 05:57 Sunny with Mist and Fog 55 12.8 55 12.8 100 100 Calm 30.13 1020 2 2 0.00 0.00
6:05 am 06:05 Sunny with Mist and Fog 55 12.8 55 12.8 100 100 Calm 30.13 1020 1 1 0.00 0.00
6:13 am 06:13 Mostly Cloudy with Mist and Fog 56 13.3 56 13.3 100 100 Calm 30.13 1020 1 1 0.00 0.00
6:16 am 06:16 Partly Cloudy with Mist and Fog 56 13.3 56 13.3 100 100 Calm 30.13 1020 1 2 0.00 0.00
6:19 am 06:19 Partly Cloudy with Mist and Fog 56 13.3 56 13.3 100 100 N 3 6 30.13 1020 3 5 0.00 0.00
6:53 am 06:53 Sunny 58 14.4 57 13.9 97 97 N 3 6 30.13 1020 7 11 0.00 0.00
7:53 am 07:53 Sunny 64 17.8 60 15.6 87 87 N 5 7 30.13 1020 10 16 0.00 0.00
8:53 am 08:53 Sunny 70 21.1 61 16.1 73 73 NNW 7 11 30.14 1021 10 16 0.00 0.00
9:53 am 09:53 Mostly Sunny 74 23.3 59 15 60 60 N 8 13 30.14 1021 10 16 0.00 0.00
10:53 am 10:53 Mostly Cloudy 77 25 59 15 54 54 VRB 5 7 30.14 1021 10 16 0.00 0.00
11:53 am 11:53 Mostly Cloudy 76 24.4 58 14.4 54 54 N 7 11 30.14 1021 10 16 0.00 0.00
12:53 pm 12:53 Mostly Cloudy 76 24.4 57 13.9 52 52 N 7 11 30.14 1021 10 16 0.00 0.00
1:53 pm 13:53 Mostly Cloudy 77 25 56 13.3 48 48 ENE 8 13 30.14 1021 10 16 0.00 0.00
2:53 pm 14:53 Mostly Cloudy 78 25.6 56 13.3 47 47 NNW 9 15 30.13 1020 10 16 0.00 0.00
3:53 pm 15:53 Mostly Sunny 82 27.8 56 13.3 41 41 NNW 7 11 30.12 1020 10 16 0.00 0.00
4:53 pm 16:53 Partly Cloudy 83 28.3 57 13.9 41 41 VRB 6 9 30.11 1020 10 16 0.00 0.00
5:53 pm 17:53 Cloudy 79 26.1 55 12.8 44 44 NW 3 6 30.12 1020 10 16 0.00 0.00
6:53 pm 18:53 Cloudy 79 26.1 56 13.3 45 45 NNE 5 7 30.12 1020 10 16 0.00 0.00
7:53 pm 19:53 Sunny 78 25.6 58 14.4 50 50 NE 8 13 30.11 1020 10 16 0.00 0.00
8:53 pm 20:53 Sunny 75 23.9 57 13.9 54 54 ENE 5 7 30.11 1020 10 16 0.00 0.00
9:53 pm 21:53 Clear 67 19.4 59 15 76 76 N 5 7 30.13 1020 10 16 0.00 0.00
10:53 pm 22:53 Clear 69 20.6 58 14.4 68 68 ESE 3 6 30.13 1020 10 16 0.00 0.00
11:53 pm 23:53 Clear 68 20 59 15 73 73 ESE 3 6 30.13 1020 10 16 0.00 0.00

Powered by AerisWeather